Home   Weather   Whistler   Past weeks

Flag for Canada Past Weather in Whistler, British Columbia, Canada — Yesterday and Last 2 Weeks

Now
40 °F

Chilly.


Feels Like: 40 °F
Forecast: 32 / 37 °F
Wind: 1 mph from Southeast

Location: Squamish Airport

Current Time: Dec 3, 2016 at 7:43:11 am

Latest Report: Dec 3, 2016 at 7:00 am


Visibility: N/A

Pressure: 30.16 "Hg (27.76 "Hg at 674m altitude)

Humidity: 97%

Dew Point: 39 °F

Location of WhistlerLocation

Past Weather in Whistler — Graph

°F

Whistler Temperature Yesterday

Maximum temperature yesterday: 43 °F (at 1:00 pm)
Minimum temperature yesterday: 37 °F (at 8:00 am)
Average temperature yesterday: 40 °F

High & Low Weather Summary for the Past Weeks

 TemperatureHumidityPressure
High53 °F (Nov 21, 1:00 pm)100% (Nov 22, 1:00 pm)30.31 "Hg (Nov 22, 1:00 pm)
Low31 °F (Nov 28, 7:00 am)72% (Nov 21, 2:00 pm)29.44 "Hg (Nov 27, 8:00 pm)
Average39 °F95%29.86 "Hg
* Reported Nov 18 6:00 am — Dec 3 6:00 am, Whistler, Weather by CustomWeather, © 2016

Note: Actual official high and low records may vary slightly from our data, if they occured in-between our weather recording intervals... More about our weather records

Advertising

Whistler Weather History for the Previous 24 Hours

Scroll right to see more
 ConditionsComfort  
Time TempWeatherWind HumidityBarometerVisibility
6:00 am
Sat, Dec 3
39 °FChilly.1 mph97%30.15 "HgN/A
5:00 am40 °FChilly.No wind97%30.15 "HgN/A
4:00 am40 °FChilly.1 mph97%30.14 "HgN/A
3:00 am40 °FChilly.1 mph97%30.14 "HgN/A
2:00 am40 °FChilly.2 mph97%30.12 "HgN/A
1:00 am40 °FQuite cool.1 mph97%30.10 "HgN/A
12:00 am41 °FQuite cool.1 mph97%30.09 "HgN/A
11:00 pm
Fri, Dec 2
41 °FQuite cool.2 mph97%30.06 "HgN/A
10:00 pm41 °FQuite cool.1 mph97%30.03 "HgN/A
9:00 pm41 °FQuite cool.1 mph96%30.01 "HgN/A
8:00 pm41 °FQuite cool.2 mph90%29.98 "HgN/A
7:00 pm41 °FQuite cool.2 mph97%29.98 "HgN/A
6:00 pm41 °FQuite cool.1 mph97%29.97 "HgN/A
5:00 pm41 °FQuite cool.2 mph96%29.97 "HgN/A
4:00 pm43 °FQuite cool.5 mph96%29.99 "HgN/A
3:00 pm41 °FQuite cool.2 mph97%30.00 "HgN/A
2:00 pm41 °FQuite cool.1 mph94%30.01 "HgN/A
1:00 pm43 °FQuite cool.5 mph94%30.02 "HgN/A
12:00 pm40 °FQuite cool.5 mph100%30.05 "HgN/A
11:00 am41 °FQuite cool.7 mph96%30.08 "HgN/A
10:00 am40 °FChilly.7 mph97%30.11 "HgN/A
9:00 am37 °FChilly.1 mph90%30.14 "HgN/A
8:00 am37 °FChilly.1 mph97%30.16 "HgN/A
7:00 am37 °FChilly.1 mph98%30.20 "HgN/A
Weather by CustomWeather, © 2016

See weather overviewHow to use our weather pages